WZZ2MK EDDN-EDDK

Flight info

Callsign WZZ2MK
Flight time 0h 38m
Altitude 24000
Route ERETO1G/28 ERETO DCT LONLI L984 ASKIK T840 GULKO GULKO31
Aircraft A320/M-SDE3FGHIRWY/LB1

Departure

Time 2026-04-25 10:35
Airport Nuremberg Airport (EDDN)

Arrival

Time 2026-04-25 11:14
Airport Cologne Bonn Airport (EDDK)
Time Latitude Longitude Altitude Speed Heading
2026-04-25 10:35 49.49006 11.00113 8665 ft 225 kts 292°
2026-04-25 10:35 49.49598 10.97746 9303 ft 250 kts 292°
2026-04-25 10:36 49.50275 10.95147 9957 ft 272 kts 298°
2026-04-25 10:36 49.51536 10.92964 10804 ft 281 kts 329°
2026-04-25 10:36 49.53413 10.92061 11761 ft 288 kts 352°
2026-04-25 10:36 49.55428 10.91914 12838 ft 293 kts 359°
2026-04-25 10:37 49.57480 10.92070 13907 ft 298 kts
2026-04-25 10:37 49.59562 10.92312 14855 ft 303 kts
2026-04-25 10:37 49.61680 10.92537 15793 ft 307 kts
2026-04-25 10:37 49.63874 10.92717 16373 ft 327 kts
2026-04-25 10:38 49.66227 10.92844 16721 ft 351 kts
2026-04-25 10:38 49.68734 10.93323 17120 ft 375 kts 12°
2026-04-25 10:38 49.71206 10.94780 17881 ft 387 kts 26°
2026-04-25 10:38 49.73434 10.97201 18720 ft 397 kts 38°
2026-04-25 10:39 49.75666 10.99727 19515 ft 399 kts 24°
2026-04-25 10:39 49.78327 11.00882 20305 ft 400 kts
2026-04-25 10:39 49.81092 11.00592 21125 ft 401 kts 345°
2026-04-25 10:39 49.83669 10.99114 21936 ft 402 kts 329°
2026-04-25 10:40 49.85932 10.96480 22744 ft 405 kts 313°
2026-04-25 10:40 49.87538 10.92966 23507 ft 408 kts 296°
2026-04-25 10:40 49.88745 10.88935 23939 ft 419 kts 294°
2026-04-25 10:40 49.89967 10.84735 24080 ft 437 kts 294°
2026-04-25 10:41 49.91236 10.80340 24117 ft 456 kts 294°
2026-04-25 10:41 49.92275 10.76734 24110 ft 469 kts 294°
2026-04-25 10:41 49.93417 10.72732 24125 ft 481 kts 294°
2026-04-25 10:41 49.94778 10.67999 24721 ft 476 kts 294°
2026-04-25 10:42 49.96113 10.63357 25574 ft 466 kts 294°
2026-04-25 10:42 49.97425 10.58809 26452 ft 455 kts 294°
2026-04-25 10:42 49.98714 10.54361 27231 ft 449 kts 294°
2026-04-25 10:42 50.00001 10.49922 27548 ft 451 kts 294°
2026-04-25 10:43 50.01288 10.45470 27400 ft 451 kts 294°
2026-04-25 10:43 50.02572 10.41011 27069 ft 452 kts 294°
2026-04-25 10:43 50.03853 10.36531 26747 ft 454 kts 294°
2026-04-25 10:43 50.05136 10.32036 26414 ft 455 kts 294°
2026-04-25 10:44 50.05445 10.30952 26326 ft 456 kts 294°
2026-04-25 10:44 50.06425 10.27720 26162 ft 453 kts 293°
2026-04-25 10:44 50.07306 10.22945 25827 ft 464 kts 278°
2026-04-25 10:44 50.07414 10.17925 25511 ft 466 kts 267°
2026-04-25 10:45 50.07238 10.12885 25197 ft 467 kts 268°
2026-04-25 10:45 50.07145 10.07814 24890 ft 470 kts 270°
2026-04-25 10:45 50.07114 10.02727 24580 ft 472 kts 270°
2026-04-25 10:45 50.07116 9.97597 24276 ft 474 kts 271°
2026-04-25 10:46 50.07118 9.96192 24198 ft 475 kts 271°
2026-04-25 10:48 50.07098 9.93177 23333 ft 482 kts 269°
2026-04-25 10:48 50.06977 9.87931 23149 ft 464 kts 268°
2026-04-25 10:48 50.06884 9.83040 23863 ft 462 kts 270°
2026-04-25 10:48 50.06855 9.77979 24059 ft 474 kts 270°
2026-04-25 10:49 50.06861 9.72776 24111 ft 487 kts 271°
2026-04-25 10:49 50.06874 9.67515 24720 ft 483 kts 271°
2026-04-25 10:49 50.06887 9.62238 24844 ft 490 kts 271°
2026-04-25 10:49 50.06900 9.56903 24428 ft 487 kts 271°
2026-04-25 10:50 50.06906 9.51752 24303 ft 469 kts 270°
2026-04-25 10:50 50.06847 9.46674 24105 ft 470 kts 269°
2026-04-25 10:50 50.06729 9.41584 24123 ft 469 kts 268°
2026-04-25 10:50 50.06622 9.37407 24127 ft 468 kts 268°
2026-04-25 10:51 50.06542 9.35493 24329 ft 466 kts 264°
2026-04-25 10:51 50.06226 9.30433 24661 ft 475 kts 266°
2026-04-25 10:51 50.06087 9.25302 24706 ft 472 kts 269°
2026-04-25 10:51 50.06078 9.20230 24757 ft 468 kts 271°
2026-04-25 10:52 50.06118 9.15174 24808 ft 465 kts 271°
2026-04-25 10:52 50.06147 9.10245 24853 ft 463 kts 270°
2026-04-25 10:52 50.06141 9.05646 24883 ft 462 kts 270°
2026-04-25 10:52 50.06097 9.00687 24912 ft 460 kts 269°
2026-04-25 10:53 50.06086 8.99856 24922 ft 461 kts 269°
2026-04-25 10:55 50.05878 8.94617 24340 ft 480 kts 266°
2026-04-25 10:55 50.05702 8.89424 24127 ft 481 kts 268°
2026-04-25 10:55 50.05608 8.84234 24130 ft 476 kts 269°
2026-04-25 10:55 50.05559 8.79203 24146 ft 461 kts 269°
2026-04-25 10:56 50.05519 8.74246 24135 ft 457 kts 269°
2026-04-25 10:56 50.05642 8.69319 24144 ft 455 kts 277°
2026-04-25 10:56 50.06242 8.64487 24139 ft 455 kts 285°
2026-04-25 10:56 50.07331 8.59920 24134 ft 455 kts 295°
2026-04-25 10:57 50.08959 8.55699 24135 ft 456 kts 307°
2026-04-25 10:57 50.11106 8.52069 24136 ft 457 kts 318°
2026-04-25 10:57 50.13699 8.49212 24136 ft 458 kts 330°
2026-04-25 10:57 50.16622 8.47209 23894 ft 460 kts 339°
2026-04-25 10:58 50.19629 8.45573 23603 ft 457 kts 340°
2026-04-25 10:58 50.22614 8.43971 23330 ft 447 kts 340°
2026-04-25 10:58 50.25504 8.42428 23056 ft 432 kts 340°
2026-04-25 10:58 50.28292 8.40885 22780 ft 418 kts 336°
2026-04-25 10:59 50.30742 8.38885 22517 ft 405 kts 326°
2026-04-25 10:59 50.32582 8.37045 22321 ft 400 kts 326°
2026-04-25 10:59 50.35009 8.34623 22087 ft 426 kts 326°
2026-04-25 11:00 50.37573 8.32078 21849 ft 449 kts 327°
2026-04-25 11:00 50.40281 8.29395 21618 ft 470 kts 327°
2026-04-25 11:00 50.43081 8.26620 21851 ft 475 kts 327°
2026-04-25 11:00 50.45858 8.23892 22878 ft 467 kts 327°
2026-04-25 11:01 50.48594 8.21226 23852 ft 459 kts 327°
2026-04-25 11:01 50.51289 8.18616 24700 ft 452 kts 327°
2026-04-25 11:01 50.53924 8.16027 25544 ft 437 kts 326°
2026-04-25 11:01 50.56310 8.13576 24983 ft 412 kts 324°
2026-04-25 11:02 50.58617 8.11062 23975 ft 397 kts 322°
2026-04-25 11:02 50.60825 8.08486 22453 ft 394 kts 321°
2026-04-25 11:02 50.62270 8.06693 21467 ft 390 kts 320°
2026-04-25 11:02 50.63743 8.04772 20486 ft 386 kts 319°
2026-04-25 11:03 50.65759 8.02022 19190 ft 380 kts 317°
2026-04-25 11:03 50.65806 8.01955 19165 ft 380 kts 317°
2026-04-25 11:05 50.66159 8.01436 19020 ft 374 kts 311°
2026-04-25 11:05 50.67736 7.98413 18047 ft 350 kts 314°
2026-04-25 11:05 50.69721 7.96178 16122 ft 358 kts 337°
2026-04-25 11:05 50.72058 7.94857 14721 ft 359 kts 339°
2026-04-25 11:06 50.74194 7.92823 13542 ft 362 kts 314°
2026-04-25 11:06 50.75421 7.89502 13135 ft 343 kts 285°
2026-04-25 11:06 50.75504 7.85897 12996 ft 321 kts 261°
2026-04-25 11:06 50.74864 7.82591 12600 ft 311 kts 249°
2026-04-25 11:07 50.74014 7.79554 12437 ft 294 kts 248°
2026-04-25 11:07 50.73194 7.76701 12255 ft 278 kts 248°
2026-04-25 11:07 50.72400 7.73953 11873 ft 272 kts 248°
2026-04-25 11:07 50.71746 7.71201 11516 ft 271 kts 256°
2026-04-25 11:08 50.71260 7.68344 11312 ft 270 kts 259°
2026-04-25 11:08 50.70833 7.65441 10960 ft 274 kts 260°
2026-04-25 11:08 50.70414 7.62508 10430 ft 276 kts 259°
2026-04-25 11:08 50.69984 7.59552 9832 ft 276 kts 259°
2026-04-25 11:09 50.69538 7.56601 9221 ft 277 kts 259°
2026-04-25 11:09 50.69081 7.53652 8593 ft 277 kts 259°
2026-04-25 11:09 50.68617 7.50709 8002 ft 277 kts 259°
2026-04-25 11:09 50.68499 7.49964 7850 ft 277 kts 259°
2026-04-25 11:10 50.68476 7.49818 7822 ft 276 kts 259°
2026-04-25 11:10 50.68251 7.45476 6688 ft 334 kts 278°
2026-04-25 11:10 50.68681 7.41886 6037 ft 333 kts 288°
2026-04-25 11:11 50.69725 7.38701 5404 ft 327 kts 313°
2026-04-25 11:11 50.71322 7.36177 4781 ft 324 kts 320°
2026-04-25 11:11 50.73128 7.34077 4139 ft 322 kts 328°
2026-04-25 11:11 50.74921 7.31956 3511 ft 322 kts 321°
2026-04-25 11:12 50.76577 7.29537 2751 ft 326 kts 318°
2026-04-25 11:12 50.78211 7.27105 2271 ft 319 kts 318°
2026-04-25 11:12 50.79829 7.24773 1840 ft 312 kts 318°
2026-04-25 11:12 50.81419 7.22493 1417 ft 305 kts 317°
2026-04-25 11:13 50.82967 7.20260 1026 ft 298 kts 316°
2026-04-25 11:13 50.84480 7.18074 628 ft 291 kts 317°
2026-04-25 11:13 50.85919 7.16007 354 ft 262 kts 316°
2026-04-25 11:13 50.87071 7.14313 279 ft 188 kts 317°
2026-04-25 11:14 50.87638 7.13499 241 ft 149 kts 315°
2026-04-25 11:14 50.88263 7.12574 234 ft 29 kts 325°
2026-04-25 11:14 50.88333 7.12582 234 ft 8 kts 44°
2026-04-25 11:14 50.88289 7.12657 234 ft 28 kts 143°
2026-04-25 11:15 50.88058 7.12947 239 ft 45 kts 142°
2026-04-25 11:15 50.87849 7.13068 239 ft 28 kts 224°
2026-04-25 11:15 50.87794 7.12758 232 ft 31 kts 272°
2026-04-25 11:15 50.87889 7.12611 232 ft 19 kts 358°
2026-04-25 11:16 50.88147 7.12215 232 ft 35 kts 307°
2026-04-25 11:16 50.88197 7.12060 232 ft 4 kts 242°
2026-04-25 11:16 50.88151 7.11998 232 ft 0 kts 216°